Location: Tamazert
(32.6352°N, 5.2072°W)
Time: 01:34:55
(UTC+00:00)

Altair - Pass Details

Date: 07 October 2022
Orbit: 1501 x 1682 km, 47.2° (Epoch: 05 December)

Event Time Altitude Azimuth Distance (km) Brightness Sun altitude
Exits shadow 04:56:19 25° 272° (W) 2,815 8.3 -18.2°
Maximum altitude 05:02:08 51° 335° (NNW) 1,972 7.9 -17.0°
Drops below altitude 10° 05:11:47 10° 50° (NE) 3,908 10.4 -14.9°
Sets 05:15:10 0° 55° (NE) 4,913 11.2 -14.2°
